{"data":{"norad_id":59781,"epoch":"2026-05-25T05:35:19.392576Z","epoch_age_seconds":54911,"freshness":"FRESH","line1":"1 59781U 24092J   26145.23286334  .00000137  00000+0  67777-4 0  9994","line2":"2 59781  98.6671 264.2991 0010965 277.8818  82.1120 14.31837124105615","mean_motion":14.31837124,"eccentricity":0.0010965,"inclination_deg":98.6671,"raan_deg":264.2991,"arg_perigee_deg":277.8818,"mean_anomaly_deg":82.112,"bstar":6.7777e-5,"rev_number":10561,"period_min":100.57009808331,"perigee_km":777.74159603414,"apogee_km":793.45166388464,"semimajor_km":7163.7336299594,"source":"CELESTRAK","updated_at":"2026-05-25T13:38:01.677020Z"}}